Flag for Greece Weather past 2 weeks in Corfu, Greece

Now
50 °F

Broken clouds.


Feels Like: 50 °F
Forecast: 43 / 57 °F
Wind: No wind

Location: Kerkyra Airport

Current Time: Dec 21, 2014 at 10:34:21 AM

Latest Report: Dec 21, 2014 at 9:50 AM


Visibility: N/A

Pressure: 30.15 "Hg

Humidity: 100%

Dew point: 50 °F

Location of CorfuLocation

Historic Weather in Corfu — Graph

°F

Corfu temperature yesterday

Maximum temperature yesterday: 63 °F (at 12:50 PM)
Minimum temperature yesterday: 41 °F (at 6:50 AM)
Average temperature yesterday: 50 °F

Past Weeks' High & Low Weather Summary

 TemperatureHumidityPressure
High68 °F (Dec 12, 3:50 PM)100% (Dec 7, 9:50 PM)30.30 "Hg (Dec 7, 9:50 PM)
Low41 °F (Dec 20, 6:50 AM)46% (Dec 12, 1:20 PM)29.62 "Hg (Dec 8, 4:50 PM)
Average54 °F88%30.01 "Hg
* Reported Dec 6 9:20 AM — Dec 21 9:20 AM, Corfu, Weather by CustomWeather, © 2014

Note: Actual official high and low records may vary slightly from our data, if they occured in-between our weather recording intervals... More about our weather records

Advertising

Corfu weather history for previous 24 hours

 ConditionsComfort  
Time TempWeatherWind HumidityBarometerVisibility
9:20 AM
Dec 21
48 °FLight rain. Mostly cloudy.No wind100%30.12 "Hg4 mi
8:50 AM48 °FLight rain. Mostly cloudy.No wind100%30.12 "Hg4 mi
8:20 AM48 °FBroken clouds.No wind100%30.12 "HgN/A
7:50 AM48 °FPartly cloudy.No wind100%30.12 "HgN/A
7:20 AM46 °FPartly cloudy.No wind100%30.12 "HgN/A
6:50 AM46 °FPassing clouds.No wind100%30.12 "HgN/A
6:20 AM45 °FPassing clouds.No wind93%30.12 "HgN/A
5:50 AM45 °FPassing clouds.No wind93%30.12 "HgN/A
5:20 AM43 °FClear.No wind100%30.12 "Hg10 mi
4:50 AM45 °FClear.No wind93%30.15 "Hg10 mi
4:20 AM45 °FClear.No wind93%30.15 "Hg10 mi
3:50 AM45 °FClear.No wind93%30.15 "Hg10 mi
3:20 AM45 °FClear.No wind100%30.15 "Hg10 mi
2:50 AM45 °FClear.No wind100%30.15 "Hg10 mi
2:20 AM45 °FClear.No wind100%30.15 "Hg10 mi
1:50 AM45 °FClear.No wind100%30.15 "Hg10 mi
1:20 AM45 °FClear.No wind100%30.15 "Hg10 mi
12:50 AM46 °FClear.No wind93%30.15 "Hg10 mi
12:20 AM46 °FClear.No wind100%30.15 "Hg10 mi
11:50 PM
Dec 20
46 °FClear.No wind100%30.15 "Hg10 mi
11:20 PM46 °FClear.No wind100%30.18 "Hg10 mi
10:50 PM46 °FClear.No wind100%30.18 "Hg10 mi
10:20 PM46 °FClear.No wind100%30.18 "Hg10 mi
9:50 PM46 °FPassing clouds.No wind100%30.18 "HgN/A
9:20 PM48 °FPassing clouds.No wind94%30.15 "HgN/A
8:50 PM48 °FPassing clouds.No wind94%30.15 "HgN/A
8:20 PM50 °FPassing clouds.No wind94%30.15 "HgN/A
7:50 PM50 °FPassing clouds.No wind94%30.15 "HgN/A
7:20 PM52 °FPassing clouds.No wind88%30.15 "HgN/A
6:50 PM52 °FPassing clouds.No wind88%30.15 "HgN/A
6:20 PM54 °FPassing clouds.No wind94%30.15 "HgN/A
5:50 PM55 °FPassing clouds.No wind94%30.15 "HgN/A
5:20 PM57 °FPassing clouds.No wind82%30.15 "HgN/A
4:50 PM59 °FScattered clouds.No wind82%30.15 "HgN/A
4:20 PM61 °FScattered clouds.No wind72%30.15 "HgN/A
3:50 PM61 °FScattered clouds.No wind72%30.15 "HgN/A
3:20 PM59 °FScattered clouds.No wind77%30.18 "HgN/A
2:50 PM59 °FScattered clouds.3 mph77%30.18 "HgN/A
2:20 PM61 °FScattered clouds.No wind72%30.18 "HgN/A
1:50 PM61 °FScattered clouds.2 mph72%30.18 "HgN/A
1:20 PM63 °FScattered clouds.3 mph68%30.21 "HgN/A
12:50 PM63 °FPassing clouds.No wind68%30.21 "HgN/A
12:20 PM61 °FPassing clouds.No wind72%30.21 "HgN/A
11:50 AM59 °FPassing clouds.2 mph77%30.21 "HgN/A
11:20 AM57 °FPassing clouds.No wind82%30.21 "HgN/A
10:50 AM54 °FPassing clouds.No wind88%30.21 "HgN/A
10:20 AM50 °FPassing clouds.No wind88%30.21 "HgN/A
Weather by CustomWeather, © 2014

See weather overviewHow to use our weather pages